Regional Weather Roundup
Issued by NWS Cleveland, OH

Home | Current Version | Previous Version | Graphics & Text | Print | Product List | Glossary On
Versions: 1 2 3 4 5 6 7 8 9 10 11 12 13 14 15 16 17 18 19 20 21 22 23 24 25 26 27 28 29 30 31 32 33 34 35 36 37 38 39 40 41 42 43 44 45 46 47 48 49 50
395
ASUS41 KCLE 220412
RWRCLE
OHIO REGIONAL WEATHER ROUNDUP
NATIONAL WEATHER SERVICE WILMINGTON, OH
1100 PM EST SAT JAN 21 2017

NOTE: "FAIR" INDICATES FEW OR NO CLOUDS BELOW 12,000 FEET WITH NO
SIGNIFICANT WEATHER AND/OR OBSTRUCTIONS TO VISIBILITY.

OHZ001>008-015>018-024>027-034-035-043-044-220500-
   NORTHWEST OHIO

CITY           SKY/WX    TMP DP  RH WIND       PRES   REMARKS
DEFIANCE       FAIR      47  46  97 S5        29.63R
FINDLAY        FAIR      50  47  89 S7        29.63R
TOLEDO EXPRESS FAIR      47  47 100 S6        29.62R
TOLEDO EXEC    FAIR      48  47  96 S6        29.63S
LIMA           FAIR      51  50  96 S7        29.64R
$$

OHZ009>014-019>023-028>033-038-089-220500-
   NORTHEAST OHIO

CITY           SKY/WX    TMP DP  RH WIND       PRES   REMARKS
CLE-HOPKINS    CLOUDY    56  50  80 S8        29.68R
CLE-LAKEFRONT  CLOUDY    58  51  78 S10       29.64S
CUY CO. ARPT   CLOUDY    59  52  77 S12       29.66F
LORAIN-ELYRIA  CLOUDY    55  48  77 S10       29.65S
ASHTABULA      CLOUDY    55  50  83 S8        29.67F
AKRON-CANTON   RAIN      54  51  90 S8        29.68S FOG
WOOSTER        TSTM      53  51  93 NW7       29.69R FOG
MANSFIELD      CLOUDY    54  52  93 SE10      29.66R
YOUNGSTOWN     LGT RAIN  54  50  86 W6        29.73R
$$

OHZ042-051>053-060>062-070>072-077>081-220500-
  SOUTHWEST OHIO

CITY           SKY/WX    TMP DP  RH WIND       PRES   REMARKS
CINC-COVINGTON MOCLDY    56  53  90 CALM      29.65R
CINC-LUNKEN    CLOUDY    52  52 100 CALM      29.66R
HAMILTON       MOCLDY    50  50 100 CALM      29.66R
DAYTON         MOCLDY    51  49  92 S6        29.66R
WRIGHT-PAT AFB MOCLDY    53  53 100 CALM      29.65S
DAYTON GENERAL CLOUDY    54  51  90 S6        29.65R
WILMINGTON     CLOUDY    54  52  93 SE3       29.66R
$$

OHZ036-037-039>041-045>050-054>059-063>069-073>076-082>088-220500-
  CENTRAL AND SOUTHEAST OHIO

CITY           SKY/WX    TMP DP  RH WIND       PRES   REMARKS
COLUMBUS       CLOUDY    57  51  80 CALM      29.67R
OSU AIRPORT    CLOUDY    55  52  89 S6        29.67R
BOLTON FIELD   CLOUDY    53  51  94 SW7       29.68R
RICKENBACK AFB LGT RAIN  54  52  92 S8        29.68R
NEWARK         CLOUDY    53  50  89 W3        29.68R
MARION         CLOUDY    53  49  86 S7        29.66R
LANCASTER      CLOUDY    56  52  86 CALM      29.68R
ZANESVILLE     CLOUDY    54  50  86 SE3       29.68S
NEW PHILLY     FAIR      50  50 100 SE5       29.68F
$$




USA.gov is the U.S. government's official web portal to all federal, state and local government web resources and services.